Location: Burleson Alternative School
(32.5290°N, 97.3406°W)
Time: 08:24:24
(UTC+00:00)

Tiros 1 despin weight - Pass Details

Date: 13 November 2024
Orbit: 570 x 609 km, 48.2° (Epoch: 05 December)

Event Time Altitude Azimuth Distance (km) Brightness Sun altitude
Exits shadow 10:42:25 17° 25° (NNE) 1,506 ? -28.6°
Drops below altitude 10° 10:43:40 10° 35° (NE) 1,925 ? -28.3°
Sets 10:46:07 0° 44° (NE) 2,820 ? -27.8°
